Change the Weather History Date:

Sunday, February 12, 2012

  Actual Average (KDUJ) Record (KDUJ)
Temperature  
Mean Temperature 16 °F 26 °F  
Max Temperature 21 °F 34 °F 59 °F (1984)
Min Temperature 10 °F 18 °F -7 °F (1995)
Degree Days  
Heating Degree Days 50 39  
Month to date heating degree days 481  
Since 1 July heating degree days 4425  
Cooling Degree Days 0 0  
Month to date cooling degree days 0  
Year to date cooling degree days 0  
Moisture  
Dew Point 11 °F    
Average Humidity 74    
Maximum Humidity 85    
Minimum Humidity 68    
Precipitation  
Precipitation 0.01 in 0.09 in 0.40 in (1975)
Month to date precipitation 0.97  
Sea Level Pressure  
Sea Level Pressure 29.99 in    
Wind  
Wind Speed 10 mph (WSW)    
Max Wind Speed 20 mph    
Max Gust Speed 29 mph    
Visibility 4 miles    
Events Snow    
T = Trace of Precipitation, MM = Missing Value Source: NWS Daily Summary

Daily Weather History Graph

Daily Weather History Graph

Search for Another Location

Airport or City:

Trip Planner

Search our weather history database for the weather conditions in past years. The results will help you decide how hot, cold, wet, or windy it might be!

Date:

Astronomy

Feb. 12, 2012 Rise Set
Actual Time 7:12 AM EST 5:43 PM EST
Civil Twilight 6:44 AM EST 6:12 PM EST
Nautical Twilight 6:11 AM EST 6:44 PM EST
Astronomical Twilight 5:39 AM EST 7:16 PM EST
Moon 11:43 PM EST (2/12) 9:26 AM EST (2/12)
Length of Visible Light 11h 27m
Length of Day
10h 31m
Waning Gibbous, 72% of the Moon is Illuminated
Feb 12
Waning Gibbous
Feb 14
Last Quarter
Feb 21
New
Feb 29
First Quarter
Mar 8
Full

Hourly Weather History & Observations

Time (EST) Temp. Windchill Dew Point Humidity Pressure Visibility Wind Dir Wind Speed Gust Speed Precip Events Conditions
12:54 AM 10.9 °F -1.8 °F 3.9 °F 73% 30.03 in 6.0 mi WNW 9.2 mph - 0.00 in   Haze
1:54 AM 12.9 °F 6.9 °F 6.1 °F 74% 30.02 in 3.0 mi West 3.5 mph - 0.00 in Snow Light Snow
2:17 AM 12.2 °F 2.9 °F 8.6 °F 85% 29.95 in 2.0 mi West 5.8 mph - 0.00 in Snow Light Snow
2:33 AM 12.2 °F 1.7 °F 8.6 °F 85% 29.94 in 3.0 mi West 6.9 mph - 0.00 in Snow Light Snow
2:46 AM 14.0 °F 3.9 °F 8.6 °F 79% 29.94 in 3.0 mi West 6.9 mph - 0.00 in Snow Light Snow
2:54 AM 14.0 °F 3.9 °F 8.1 °F 77% 30.01 in 2.5 mi West 6.9 mph - 0.00 in Snow Light Snow
3:42 AM 14.0 °F 2.0 °F 8.6 °F 79% 29.93 in 5.0 mi West 9.2 mph 17.3 mph 0.00 in Snow Light Snow
3:54 AM 15.1 °F 1.1 °F 9.0 °F 77% 30.00 in 6.0 mi WSW 12.7 mph 18.4 mph 0.00 in Snow Light Snow
4:40 AM 15.8 °F 4.2 °F 8.6 °F 73% 29.92 in 6.0 mi West 9.2 mph 20.7 mph 0.00 in Snow Light Snow
4:54 AM 15.1 °F 1.8 °F 9.0 °F 77% 30.00 in 6.0 mi West 11.5 mph 20.7 mph 0.00 in Snow Light Snow
5:07 AM 15.8 °F 3.4 °F 8.6 °F 73% 29.92 in 9.0 mi WSW 10.4 mph 20.7 mph 0.00 in Snow Light Snow
5:54 AM 15.1 °F 2.5 °F 8.1 °F 74% 30.01 in 7.0 mi West 10.4 mph 25.3 mph 0.00 in Snow Light Snow
6:07 AM 15.8 °F 2.1 °F 8.6 °F 73% 29.92 in 3.0 mi WSW 12.7 mph 18.4 mph 0.00 in Snow Light Snow
6:54 AM 15.1 °F 0.5 °F 8.1 °F 74% 30.02 in 4.0 mi West 13.8 mph 20.7 mph 0.00 in Snow Light Snow
7:33 AM 14.0 °F 1.2 °F 8.6 °F 79% 29.93 in 1.8 mi WSW 10.4 mph - 0.00 in Snow Light Snow
7:54 AM 14.0 °F 0.5 °F 8.1 °F 77% 30.02 in 2.0 mi WSW 11.5 mph 19.6 mph 0.00 in Snow Light Snow
8:13 AM 15.8 °F 4.2 °F 8.6 °F 73% 29.94 in 1.2 mi WSW 9.2 mph - 0.00 in Snow Light Snow
8:47 AM 15.8 °F 3.4 °F 8.6 °F 73% 29.94 in 2.0 mi WSW 10.4 mph - 0.00 in Snow Light Snow
8:54 AM 15.1 °F 1.8 °F 9.0 °F 77% 30.03 in 2.0 mi WSW 11.5 mph 17.3 mph 0.00 in Snow Light Snow
9:33 AM 15.8 °F 1.4 °F 8.6 °F 73% 29.95 in 4.0 mi WSW 13.8 mph 21.9 mph 0.00 in Snow Light Snow
9:54 AM 16.0 °F 2.3 °F 9.0 °F 74% 30.04 in 2.5 mi WSW 12.7 mph 24.2 mph 0.00 in Snow Light Snow
10:18 AM 15.8 °F -1.1 °F 8.6 °F 73% 29.94 in 1.5 mi WSW 19.6 mph 26.5 mph 0.00 in Snow Light Snow
10:54 AM 17.1 °F 1.0 °F 10.0 °F 74% 30.03 in 2.0 mi WSW 18.4 mph 24.2 mph 0.00 in Snow Light Snow
11:31 AM 17.6 °F 2.2 °F 10.4 °F 73% 29.93 in 1.5 mi WSW 17.3 mph 28.8 mph 0.00 in Snow Light Snow
11:49 AM 17.6 °F 2.7 °F 10.4 °F 73% 29.93 in 2.0 mi WSW 16.1 mph 21.9 mph 0.00 in Snow Light Snow
11:54 AM 18.0 °F 5.4 °F 10.0 °F 71% 30.01 in 2.0 mi WSW 11.5 mph 23.0 mph 0.00 in Snow Light Snow
12:05 PM 17.6 °F 2.2 °F 10.4 °F 73% 29.93 in 1.5 mi WSW 17.3 mph 28.8 mph 0.00 in Snow Light Snow
12:22 PM 19.4 °F 6.6 °F 10.4 °F 68% 29.92 in 2.5 mi WSW 12.7 mph 24.2 mph 0.00 in Snow Light Snow
12:54 PM 19.0 °F 5.0 °F 10.9 °F 71% 30.00 in 4.0 mi WSW 15.0 mph 28.8 mph 0.00 in Snow Light Snow
1:54 PM 19.9 °F 6.2 °F 12.9 °F 74% 29.99 in 2.0 mi West 15.0 mph 28.8 mph 0.00 in Snow Light Snow
2:22 PM 19.4 °F 7.2 °F 12.2 °F 74% 29.91 in 1.8 mi West 11.5 mph 24.2 mph 0.00 in Snow Light Snow
2:54 PM 19.9 °F 7.3 °F 14.0 °F 78% 29.99 in 1.2 mi West 12.7 mph 19.6 mph 0.00 in Snow Light Snow
3:46 PM 21.2 °F 10.1 °F 14.0 °F 74% 29.92 in 2.5 mi West 10.4 mph 21.9 mph 0.00 in Snow Light Snow
3:54 PM 21.0 °F 9.3 °F 15.1 °F 78% 30.00 in 1.5 mi West 11.5 mph 19.6 mph 0.00 in Snow Light Snow
4:37 PM 21.2 °F 10.9 °F 15.8 °F 80% 29.94 in 3.0 mi West 9.2 mph - 0.00 in Snow Light Snow
4:50 PM 21.2 °F 10.9 °F 15.8 °F 80% 29.94 in 1.5 mi WSW 9.2 mph - 0.00 in Snow Light Snow
4:54 PM 21.0 °F 12.4 °F 16.0 °F 81% 30.02 in 1.0 mi WSW 6.9 mph - 0.01 in Snow Light Snow
5:24 PM 21.2 °F 10.9 °F 15.8 °F 80% 29.95 in 3.0 mi WSW 9.2 mph 21.9 mph 0.00 in Snow Light Snow
5:38 PM 21.2 °F 10.1 °F 15.8 °F 80% 29.96 in 2.5 mi WSW 10.4 mph 17.3 mph 0.00 in Snow Light Snow
5:45 PM 21.2 °F 10.9 °F 14.0 °F 74% 29.96 in 7.0 mi West 9.2 mph 17.3 mph 0.00 in Snow Light Snow
5:54 PM 21.0 °F 7.6 °F 12.9 °F 71% 30.04 in 9.0 mi West 15.0 mph 21.9 mph 0.00 in Snow Light Snow
6:29 PM 21.2 °F 10.9 °F 12.2 °F 68% 29.99 in 4.0 mi West 9.2 mph 17.3 mph 0.00 in Snow Light Snow
6:52 PM 21.2 °F 8.9 °F 12.2 °F 68% 30.00 in 5.0 mi West 12.7 mph 20.7 mph 0.00 in Snow Light Snow
6:54 PM 21.0 °F 8.1 °F 12.9 °F 71% 30.07 in 6.0 mi West 13.8 mph 27.6 mph 0.00 in Snow Light Snow
7:26 PM 19.4 °F 6.6 °F 12.2 °F 74% 30.01 in 2.5 mi West 12.7 mph 18.4 mph 0.00 in Snow Light Snow
7:41 PM 19.4 °F 7.2 °F 12.2 °F 74% 30.02 in 5.0 mi West 11.5 mph 23.0 mph 0.00 in Snow Light Snow
7:54 PM 19.9 °F 8.6 °F 12.0 °F 71% 30.10 in 9.0 mi West 10.4 mph 18.4 mph 0.00 in Snow Light Snow
8:24 PM 19.4 °F 8.6 °F 10.4 °F 68% 30.02 in 9.0 mi West 9.2 mph 24.2 mph 0.00 in Snow Light Snow
8:49 PM 19.4 °F 9.5 °F 10.4 °F 68% 30.03 in 10.0 mi West 8.1 mph - 0.00 in Snow Light Snow
8:54 PM 19.9 °F 9.3 °F 10.9 °F 68% 30.11 in 9.0 mi WSW 9.2 mph 17.3 mph 0.00 in Snow Light Snow
9:54 PM 19.9 °F 9.3 °F 12.0 °F 71% 30.10 in 8.0 mi WSW 9.2 mph - 0.00 in Snow Light Snow
10:54 PM 19.9 °F 6.7 °F 12.9 °F 74% 30.09 in 9.0 mi WSW 13.8 mph 19.6 mph 0.00 in   Overcast
11:54 PM 19.9 °F 7.9 °F 12.9 °F 74% 30.09 in 10.0 mi WSW 11.5 mph - 0.00 in   Overcast